Location: Bowman Observatory
(41.0326°N, 73.6210°W)
Time: 13:28:11
(UTC-04:00)

Cosmos 2298 Rocket - Visible Passes

Search period start: 20 April 2014 00:00
Search period end: 30 April 2014 00:00
Orbit: 777 x 785 km, 74.0° (Epoch: 19 April)

Date Brightness Start Highest point End Pass type
(mag) Time Alt. Az. Time Alt. Az. Time Alt. Az.
20 Apr 6.2 03:10:12 14° SE 03:12:32 18° E 03:16:02 10° NE visible
20 Apr 4.2 04:50:45 19° SW 04:54:22 54° WNW 04:59:35 10° N visible
21 Apr 6.6 02:38:23 10° ESE 02:39:37 11° E 02:40:51 10° ENE visible
21 Apr 3.9 04:18:29 31° SSW 04:21:07 85° WNW 04:26:26 10° NNE visible
22 Apr 4.3 03:46:10 40° SSE 03:47:55 61° ESE 03:53:09 10° NNE visible
22 Apr 5.7 05:27:07 10° W 05:30:43 18° NW 05:34:20 10° NNW visible
23 Apr 5.0 03:13:47 35° SE 03:14:48 38° ESE 03:19:41 10° NE visible
23 Apr 5.2 04:54:20 17° WSW 04:57:13 27° WNW 05:01:42 10° N visible
24 Apr 5.7 02:41:22 24° ESE 02:41:46 24° E 02:45:57 10° NE visible
24 Apr 4.6 04:21:54 30° WSW 04:23:49 41° WNW 04:28:50 10° N visible
25 Apr 6.3 02:08:54 15° E 02:08:54 15° E 02:11:44 10° ENE visible
25 Apr 4.1 03:49:26 52° WSW 03:50:30 64° WNW 03:55:47 10° NNE visible
26 Apr 3.9 03:16:56 77° SSE 03:17:16 82° ESE 03:22:35 10° NNE visible
26 Apr 6.0 04:57:32 10° W 05:00:18 14° NW 05:03:05 10° NNW visible
27 Apr 4.6 02:44:23 51° E 02:44:23 51° E 02:49:14 10° NNE visible
27 Apr 5.5 04:24:55 18° W 04:26:45 21° WNW 04:30:44 10° N visible
28 Apr 5.4 02:11:49 31° E 02:11:49 31° E 02:15:41 10° NE visible
28 Apr 5.0 03:52:21 29° W 03:53:17 31° WNW 03:58:00 10° N visible
29 Apr 6.1 01:39:13 19° ENE 01:39:13 19° ENE 01:41:49 10° NE visible
29 Apr 4.4 03:19:45 48° WNW 03:19:55 48° WNW 03:25:03 10° N visible
